GW0260 Weather Reports


Display with metric or nautical units.
time (UTC)temp
F
wind
direction
speed
MPH
gust
MPH
rain 1hr
in
rain 24hr
in
rain mn
in
humidity
%
barometer
mb
20260502224351 50 235 1.0 2.0 0.00 0.07 0.07 98
20260502223849 50 282 1.0 1.0 0.00 0.07 0.07 98
20260502223347 50 283 0.0 1.0 0.00 0.07 0.07 98
20260502222844 50 277 0.0 0.0 0.00 0.07 0.07 98
20260502222342 50 247 0.0 1.0 0.00 0.07 0.07 98
20260502221837 50 276 0.0 1.0 0.00 0.07 0.07 97
20260502221334 50 263 0.0 1.0 0.00 0.07 0.07 97
20260502220831 50 286 0.0 0.0 0.00 0.07 0.07 97
20260502220327 50 287 0.0 0.0 0.00 0.07 0.07 96
20260502215823 50 275 1.0 2.0 0.00 0.07 0.07 96
20260502215321 50 274 0.0 1.0 0.00 0.07 0.07 95
20260502214818 50 285 1.0 1.0 0.05 0.07 0.07 95
20260502214315 50 285 0.0 0.0 0.05 0.07 0.07 95
20260502213812 50 285 0.0 0.0 0.00 0.06 0.06 95
20260502213309 50 288 1.0 2.0 0.00 0.06 0.06 94
20260502212808 50 311 1.0 2.0 0.07 0.06 0.06 93
20260502212306 50 270 2.0 5.0 0.07 0.06 0.06 92
20260502211802 50 283 0.0 3.0 0.00 0.05 0.05 92
20260502211258 51 290 2.0 5.0 0.00 0.05 0.05 90
20260502210755 51 282 3.0 5.0 0.00 0.05 0.05 88
20260502210253 51 267 3.0 6.0 0.00 0.05 0.05 86
20260502205750 51 297 3.0 6.0 0.00 0.05 0.05 86
20260502205246 53 242 2.0 6.0 0.00 0.05 0.05 84
20260502204743 55 322 0.0 2.0 0.00 0.05 0.05 75
20260502204240 55 284 2.0 3.0 0.00 0.05 0.05 73
20260502203738 55 30 1.0 5.0 0.00 0.05 0.05 73
20260502203236 57 105 0.0 3.0 0.00 0.05 0.05 70
20260502202730 58 23 1.0 3.0 0.00 0.05 0.05 69
20260502202228 59 289 3.0 6.0 0.00 0.05 0.05 65
20260502201725 60 207 3.0 6.0 0.00 0.05 0.05 64
20260502201222 60 205 4.0 6.0 0.00 0.05 0.05 63
20260502200718 60 121 1.0 6.0 0.00 0.05 0.05 64
20260502200214 61 233 2.0 3.0 0.00 0.05 0.05 60
20260502195713 60 53 1.0 6.0 0.00 0.05 0.05 61
20260502195209 59 205 4.0 7.0 0.00 0.05 0.05 59
20260502194706 58 228 2.0 3.0 0.00 0.05 0.05 59
20260502194203 58 276 2.0 3.0 0.00 0.05 0.05 59
20260502193658 59 230 2.0 9.0 0.00 0.05 0.05 59
20260502193156 58 63 2.0 5.0 0.00 0.05 0.05 58
20260502192651 58 226 4.0 7.0 0.00 0.05 0.05 59
20260502192149 59 256 2.0 7.0 0.00 0.05 0.05 63
20260502191645 59 182 2.0 7.0 0.00 0.05 0.05 65
20260502191143 58 58 2.0 6.0 0.00 0.05 0.05 67
20260502190640 59 278 5.0 9.0 0.00 0.05 0.05 66
20260502190138 55 316 3.0 5.0 0.00 0.05 0.05 71
20260502185632 56 286 5.0 11.0 0.00 0.05 0.05 74
20260502185129 56 217 3.0 7.0 0.00 0.05 0.05 74
20260502184625 56 168 1.0 8.0 0.00 0.05 0.05 77
20260502184121 56 194 2.0 6.0 0.00 0.05 0.05 77
20260502183618 57 220 3.0 5.0 0.00 0.05 0.05 75
20260502183114 57 117 2.0 9.0 0.00 0.05 0.05 74
20260502182609 59 194 4.0 5.0 0.00 0.05 0.05 75
20260502182105 59 197 1.0 3.0 0.00 0.05 0.05 78
20260502181603 59 130 2.0 3.0 0.00 0.05 0.05 78
20260502181102 57 246 2.0 8.0 0.00 0.05 0.05 77
20260502180558 57 222 2.0 10.0 0.00 0.05 0.05 76
20260502170518 56 288 1.0 6.0 0.00 0.05 0.05 66
20260502164001 55 251 2.0 9.0 0.00 0.05 0.05 67
20260502163457 55 193 2.0 8.0 0.00 0.05 0.05 69
20260502162954 55 211 2.0 3.0 0.00 0.05 0.05 77
20260502162451 55 287 1.0 2.0 0.00 0.05 0.05 75
20260502161948 55 185 5.0 7.0 0.00 0.05 0.05 75
20260502161444 55 194 3.0 6.0 0.00 0.05 0.05 79
20260502160943 55 232 6.0 8.0 0.00 0.05 0.05 76
20260502160440 55 326 1.0 1.0 0.00 0.05 0.05 84
20260502151924 53 44 0.0 1.0 0.00 0.05 0.05 92
20260502151420 53 217 1.0 3.0 0.00 0.05 0.05 90
20260502150918 54 239 1.0 3.0 0.00 0.05 0.05 90
20260502150414 53 316 0.0 1.0 0.00 0.05 0.05 91
20260502130300 48 284 1.0 2.0 0.07 0.02 0.02 97
20260502123746 48 298 2.0 2.0 0.00 0.00 0.00 95
20260502123242 48 259 1.0 5.0 0.00 0.00 0.00 95
20260502122739 49 280 2.0 3.0 0.00 0.00 0.00 96
20260502122235 49 277 2.0 3.0 0.00 0.00 0.00 96
20260502121734 49 287 1.0 2.0 0.00 0.00 0.00 96
20260502121231 49 274 2.0 3.0 0.00 0.00 0.00 95
20260502120727 49 16 0.0 1.0 0.00 0.00 0.00 95
20260502120224 48 305 0.0 1.0 0.00 0.00 0.00 94
20260502115722 49 262 1.0 2.0 0.00 0.00 0.00 93
20260502115219 49 265 3.0 3.0 0.00 0.00 0.00 93
20260502114714 49 323 0.0 1.0 0.00 0.00 0.00 94
20260502114212 49 21 0.0 2.0 0.00 0.00 0.00 94
20260502113709 48 323 0.0 1.0 0.00 0.00 0.00 93
20260502113207 48 300 0.0 1.0 0.00 0.00 0.00 93
20260502112705 48 282 1.0 1.0 0.00 0.00 0.00 92
20260502112202 48 234 2.0 3.0 0.00 0.00 0.00 92
20260502111659 48 285 2.0 2.0 0.00 0.00 0.00 92
20260502111157 48 284 0.0 0.0 0.00 0.00 0.00 92
20260502110654 48 279 0.0 1.0 0.00 0.00 0.00 92
20260502110151 48 327 0.0 1.0 0.00 0.00 0.00 92
20260502105649 48 287 0.0 1.0 0.00 0.00 0.00 92
20260502105146 48 250 1.0 1.0 0.00 0.00 0.00 91
20260502104643 48 272 0.0 1.0 0.00 0.00 0.00 91
20260502104140 48 278 1.0 1.0 0.00 0.00 0.00 90
20260502103638 48 292 0.0 1.0 0.00 0.00 0.00 90
20260502103136 48 296 0.0 1.0 0.00 0.00 0.00 90
20260502102632 47 250 1.0 1.0 0.00 0.00 0.00 91
20260502102129 47 333 0.0 0.0 0.00 0.00 0.00 91
20260502101627 47 330 0.0 1.0 0.00 0.00 0.00 91
20260502101125 47 334 0.0 0.0 0.00 0.00 0.00 91
20260502100624 47 334 0.0 0.0 0.00 0.00 0.00 90
20260502100121 47 334 0.0 1.0 0.00 0.00 0.00 90
20260502091055 48 9 0.0 0.0 0.00 0.00 0.00 90
20260502090552 48 9 0.0 0.0 0.00 0.00 0.00 89
20260502071446 49 243 1.0 1.0 0.00 0.00 0.00 84
20260502070944 49 211 0.0 2.0 0.00 0.00 0.00 83
20260502070442 48 278 0.0 1.0 0.00 0.00 0.00 84
20260502065941 48 244 1.0 2.0 0.00 0.00 0.00 83
20260502065439 49 354 0.0 1.0 0.00 0.00 0.00 82
20260502064936 50 279 0.0 1.0 0.00 0.00 0.00 78
20260502064434 50 282 2.0 5.0 0.00 0.00 0.00 77
20260502063931 50 255 2.0 7.0 0.00 0.00 0.00 75
20260502063429 50 206 2.0 2.0 0.00 0.00 0.00 77
20260502062926 49 249 2.0 3.0 0.00 0.00 0.00 76
20260502062423 49 269 1.0 2.0 0.00 0.00 0.00 77
20260502061922 49 284 1.0 1.0 0.00 0.00 0.00 76
20260502061420 49 286 1.0 3.0 0.00 0.00 0.00 76
20260502060915 48 268 0.0 1.0 0.00 0.00 0.00 77
20260502060410 48 222 1.0 3.0 0.00 0.00 0.00 77
20260502055908 48 289 1.0 2.0 0.00 0.00 0.00 77
20260502055405 46 94 0.0 0.0 0.00 0.00 0.00 79
20260502054900 46 94 0.0 0.0 0.00 0.00 0.00 82
20260502054357 46 94 0.0 0.0 0.00 0.00 0.00 83
20260502053854 46 94 0.0 0.0 0.00 0.00 0.00 82
20260502053351 46 94 0.0 0.0 0.00 0.00 0.00 80
20260502052849 46 94 0.0 0.0 0.00 0.00 0.00 80
20260502052347 46 95 0.0 0.0 0.00 0.00 0.00 78
20260502051844 46 89 0.0 0.0 0.00 0.00 0.00 78
20260502051343 46 89 0.0 0.0 0.00 0.00 0.00 78
20260502050839 46 88 0.0 1.0 0.00 0.00 0.00 77
20260502050335 45 89 0.0 0.0 0.00 0.00 0.00 77
20260502045832 45 88 0.0 0.0 0.00 0.00 0.00 78
20260502045329 45 89 0.0 0.0 0.00 0.00 0.00 79
20260502044826 45 89 0.0 0.0 0.00 0.00 0.00 81
20260502044322 44 89 0.0 0.0 0.00 0.00 0.00 82
20260502043820 44 89 0.0 0.0 0.00 0.00 0.00 83
20260502043317 44 89 0.0 1.0 0.00 0.00 0.00 84
20260502042817 44 89 0.0 0.0 0.00 0.00 0.00 82
20260502042314 44 89 0.0 1.0 0.00 0.00 0.00 81
20260502041812 45 101 0.0 0.0 0.00 0.00 0.00 80
20260502041309 45 258 0.0 0.0 0.00 0.00 0.00 80
20260502040806 46 258 0.0 0.0 0.00 0.00 0.00 78
20260502040303 47 258 0.0 0.0 0.00 0.00 0.00 76
20260502035759 48 258 0.0 1.0 0.00 0.00 0.00 76
20260502035255 48 258 0.0 1.0 0.00 0.00 0.00 73
20260502034753 48 258 0.0 1.0 0.00 0.00 0.00 70
20260502034251 48 251 1.0 2.0 0.00 0.00 0.00 73
20260502033749 47 270 0.0 1.0 0.00 0.00 0.00 75
20260502033246 47 278 0.0 1.0 0.00 0.00 0.00 75
20260502032743 48 282 0.0 1.0 0.00 0.00 0.00 73
20260502032239 48 297 1.0 2.0 0.00 0.00 0.00 70
20260502031737 48 265 1.0 2.0 0.00 0.00 0.00 70
20260502031235 47 289 0.0 2.0 0.00 0.00 0.00 75
20260502030733 46 293 2.0 2.0 0.00 0.00 0.00 78
20260502030231 46 15 1.0 1.0 0.00 0.00 0.00 81
20260502025728 46 301 0.0 0.0 0.00 0.00 0.00 80
20260502025226 47 301 0.0 0.0 0.00 0.00 0.00 80
20260502024723 47 301 0.0 0.0 0.00 0.00 0.00 79
20260502024221 47 301 0.0 0.0 0.00 0.00 0.00 79
20260502023719 47 301 0.0 0.0 0.00 0.00 0.00 78
20260502023216 47 301 0.0 0.0 0.00 0.00 0.00 77
20260502022714 47 301 0.0 0.0 0.00 0.00 0.00 76
20260502022210 47 300 0.0 1.0 0.00 0.00 0.00 76
20260502021707 47 301 1.0 1.0 0.00 0.00 0.00 76
20260502021204 47 301 0.0 1.0 0.00 0.00 0.00 75
20260502020701 48 301 0.0 0.0 0.00 0.00 0.00 73
20260502020158 48 301 0.0 0.0 0.00 0.00 0.00 72
20260502015656 48 301 0.0 1.0 0.00 0.00 0.00 71
20260502015152 48 291 0.0 1.0 0.00 0.00 0.00 72
20260502014650 48 299 0.0 1.0 0.00 0.00 0.00 72
20260502014147 48 321 1.0 1.0 0.00 0.00 0.00 74
20260502013643 48 341 0.0 0.0 0.00 0.00 0.00 74
20260502013138 48 321 0.0 1.0 0.00 0.00 0.00 74
20260502012636 49 321 0.0 1.0 0.00 0.00 0.00 72
20260502012134 49 321 0.0 1.0 0.00 0.00 0.00 72
20260502011630 49 321 0.0 0.0 0.00 0.00 0.00 70
20260502011126 50 321 0.0 1.0 0.00 0.00 0.00 68
20260502010624 50 321 0.0 1.0 0.00 0.00 0.00 68
20260502010120 50 321 0.0 1.0 0.00 0.00 0.00 66
20260502005618 50 321 0.0 1.0 0.00 0.00 0.00 66
20260502005115 50 322 0.0 1.0 0.00 0.00 0.00 65
20260502004611 51 308 0.0 1.0 0.00 0.00 0.00 67
20260502004108 51 308 1.0 1.0 0.00 0.00 0.00 63
20260502003606 52 308 0.0 0.0 0.00 0.00 0.00 62
20260502003102 52 308 0.0 1.0 0.00 0.00 0.00 61
20260502002558 53 308 1.0 1.0 0.00 0.00 0.00 65
20260502002056 53 308 0.0 0.0 0.00 0.00 0.00 62
20260502001554 53 308 0.0 1.0 0.00 0.00 0.00 54
20260502001050 53 309 0.0 0.0 0.00 0.00 0.00 51
20260502000549 53 308 0.0 0.0 0.00 0.00 0.00 55
20260502000046 54 308 0.0 0.0 0.00 0.00 0.00 54
20260501235541 55 308 0.0 1.0 0.00 0.00 0.00 56
20260501235038 56 308 0.0 1.0 0.00 0.00 0.00 49
20260501234533 56 308 0.0 1.0 0.00 0.00 0.00 49
20260501234032 56 308 0.0 1.0 0.00 0.00 0.00 45
20260501233529 56 290 0.0 2.0 0.00 0.00 0.00 48
20260501233026 57 323 0.0 1.0 0.00 0.00 0.00 45
20260501232522 57 324 0.0 1.0 0.00 0.00 0.00 43
20260501232020 58 311 0.0 1.0 0.00 0.00 0.00 44
20260501231517 58 299 0.0 1.0 0.00 0.00 0.00 41
20260501231016 59 328 1.0 1.0 0.00 0.00 0.00 40
20260501230514 59 220 3.0 3.0 0.00 0.00 0.00 39
20260501230011 59 201 1.0 1.0 0.00 0.00 0.00 41
20260501225510 60 275 1.0 2.0 0.00 0.00 0.00 40
20260501225004 62 247 1.0 3.0 0.00 0.00 0.00 36
20260501224503 62 279 2.0 6.0 0.00 0.00 0.00 37